{"data":{"norad_id":62084,"epoch":"2026-05-25T04:12:01.345248Z","epoch_age_seconds":59166,"freshness":"FRESH","line1":"1 62084U 24219D   26145.17501557  .00000779  00000+0  13170-3 0  9994","line2":"2 62084  97.9023 305.1059 0005609  33.1022 327.0536 14.72026134 80381","mean_motion":14.72026134,"eccentricity":0.0005609,"inclination_deg":97.9023,"raan_deg":305.1059,"arg_perigee_deg":33.1022,"mean_anomaly_deg":327.0536,"bstar":0.0001317,"rev_number":8038,"period_min":97.824350175566,"perigee_km":650.66263851449,"apogee_km":658.55197107561,"semimajor_km":7032.744304795,"source":"CELESTRAK","updated_at":"2026-05-25T13:38:02.757826Z"}}